Weather History for KMJQ - November, 2013

Change the Weather History Date:

Friday, November 29, 2013

  Actual Average Record
Temperature  
Mean Temperature 20 °F -  
Max Temperature 33 °F 35 °F 60 °F (1998)
Min Temperature 8 °F 20 °F 8 °F (2013)
Degree Days  
Heating Degree Days 44    
Moisture  
Dew Point 15 °F    
Average Humidity 68    
Maximum Humidity 79    
Minimum Humidity 52    
Precipitation  
Precipitation 0.00 in - - ()
Sea Level Pressure  
Sea Level Pressure 30.29 in    
Wind  
Wind Speed 8 mph (South)    
Max Wind Speed 21 mph    
Max Gust Speed 26 mph    
Visibility 10 miles    
Events      
Averages and records for this station are not official NWS values.
T = Trace of Precipitation, MM = Missing Value Source: NWS Daily Summary

Daily Weather History Graph

Daily Weather History Graph

Search for Another Location

Airport or City:

Trip Planner

Search our weather history database for the weather conditions in past years. The results will help you decide how hot, cold, wet, or windy it might be!

Date:

Astronomy

Nov. 29, 2013 Rise Set
Actual Time 7:31 AM CST 4:44 PM CST
Civil Twilight 6:59 AM CST 5:17 PM CST
Nautical Twilight 6:23 AM CST 5:52 PM CST
Astronomical Twilight 5:49 AM CST 6:27 PM CST
Moon 3:31 AM CST (11/29) 2:35 PM CST (11/29)
Length of Visible Light 10h 17m
Length of Day
9h 13m
Waning Crescent, 14% of the Moon is Illuminated
Nov 29
Waning Crescent
Dec 2
New
Dec 9
First Quarter
Dec 17
Full
Dec 25
Last Quarter

Hourly Weather History & Observations

Time (CST) Temp. Windchill Dew Point Humidity Pressure Visibility Wind Dir Wind Speed Gust Speed Precip Events Conditions
12:13 AM 12.2 °F - 5.0 °F 73% 30.46 in 10.0 mi Calm Calm - N/A   Clear
12:33 AM 8.6 °F - 3.2 °F 79% 30.46 in 10.0 mi Calm Calm - N/A   Clear
12:53 AM 8.6 °F - 3.2 °F 79% 30.46 in 10.0 mi Calm Calm - N/A   Clear
1:13 AM 12.2 °F - 6.8 °F 79% 30.46 in 10.0 mi Calm Calm - N/A   Clear
1:33 AM 12.2 °F - 5.0 °F 73% 30.45 in 10.0 mi Calm Calm - N/A   Clear
1:53 AM 12.2 °F 6.1 °F 5.0 °F 73% 30.45 in 10.0 mi South 3.5 mph - N/A   Clear
2:13 AM 10.4 °F - 5.0 °F 79% 30.45 in 10.0 mi Calm Calm - N/A   Clear
2:33 AM 12.2 °F - 5.0 °F 73% 30.45 in 10.0 mi Calm Calm - N/A   Clear
2:53 AM 10.4 °F 4.0 °F 5.0 °F 79% 30.45 in 10.0 mi South 3.5 mph - N/A   Clear
3:13 AM 10.4 °F 4.0 °F 5.0 °F 79% 30.45 in 10.0 mi South 3.5 mph - N/A   Clear
3:33 AM 12.2 °F 4.3 °F 5.0 °F 73% 30.44 in 10.0 mi South 4.6 mph - N/A   Clear
3:53 AM 12.2 °F 2.9 °F 6.8 °F 79% 30.43 in 10.0 mi SSE 5.8 mph - N/A   Clear
4:13 AM 15.8 °F 7.2 °F 8.6 °F 73% 30.42 in 10.0 mi South 5.8 mph - N/A   Clear
4:33 AM 12.2 °F 1.7 °F 5.0 °F 73% 30.43 in 10.0 mi South 6.9 mph - N/A   Clear
4:53 AM 10.4 °F 4.0 °F 5.0 °F 79% 30.43 in 10.0 mi South 3.5 mph - N/A   Clear
5:13 AM 12.2 °F 1.7 °F 6.8 °F 79% 30.42 in 10.0 mi SSE 6.9 mph - N/A   Clear
5:33 AM 14.0 °F 3.9 °F 8.6 °F 79% 30.42 in 10.0 mi SSE 6.9 mph - N/A   Clear
5:53 AM 14.0 °F 3.9 °F 6.8 °F 73% 30.42 in 10.0 mi South 6.9 mph - N/A   Clear
6:13 AM 14.0 °F 2.9 °F 8.6 °F 79% 30.42 in 10.0 mi South 8.1 mph - N/A   Clear
6:33 AM 14.0 °F 2.9 °F 8.6 °F 79% 30.41 in 10.0 mi SSE 8.1 mph - N/A   Clear
6:53 AM 14.0 °F 2.9 °F 8.6 °F 79% 30.40 in 10.0 mi South 8.1 mph - N/A   Clear
7:13 AM 14.0 °F 2.9 °F 8.6 °F 79% 30.39 in 10.0 mi SSE 8.1 mph - N/A   Clear
7:33 AM 15.8 °F 5.1 °F 8.6 °F 73% 30.40 in 10.0 mi SSE 8.1 mph - N/A   Clear
7:52 AM 14.0 °F 2.9 °F 8.6 °F 79% 30.40 in 10.0 mi South 8.1 mph - N/A   Clear
8:13 AM 15.8 °F 5.1 °F 8.6 °F 73% 30.40 in 10.0 mi South 8.1 mph - N/A   Clear
8:33 AM 17.6 °F 6.4 °F 10.4 °F 73% 30.40 in 10.0 mi South 9.2 mph - N/A   Clear
8:53 AM 19.4 °F 8.6 °F 10.4 °F 68% 30.40 in 10.0 mi South 9.2 mph - N/A   Clear
9:13 AM 21.2 °F 9.5 °F 12.2 °F 68% 30.39 in 10.0 mi South 11.5 mph - N/A   Clear
9:33 AM 23.0 °F 11.1 °F 14.0 °F 68% 30.38 in 10.0 mi South 12.7 mph - N/A   Clear
9:53 AM 24.8 °F 12.9 °F 14.0 °F 64% 30.38 in 10.0 mi South 13.8 mph - N/A   Clear
10:13 AM 26.6 °F 15.7 °F 14.0 °F 59% 30.38 in 10.0 mi South 12.7 mph 21.9 mph N/A   Clear
10:33 AM 28.4 °F 17.5 °F 15.8 °F 59% 30.37 in 10.0 mi South 13.8 mph 19.6 mph N/A   Clear
10:53 AM 30.2 °F 17.4 °F 15.8 °F 55% 30.37 in 10.0 mi South 20.7 mph 26.5 mph N/A   Clear
11:13 AM 30.2 °F 17.4 °F 15.8 °F 55% 30.35 in 10.0 mi South 20.7 mph 25.3 mph N/A   Clear
11:33 AM 30.2 °F 17.8 °F 15.8 °F 55% 30.34 in 10.0 mi South 19.6 mph 25.3 mph N/A   Clear
11:53 AM 30.2 °F 17.4 °F 17.6 °F 60% 30.32 in 10.0 mi South 20.7 mph 26.5 mph N/A   Clear
12:13 PM 32.0 °F 20.5 °F 17.6 °F 55% 30.31 in 10.0 mi South 18.4 mph 25.3 mph N/A   Clear
12:33 PM 32.0 °F 20.1 °F 17.6 °F 55% 30.30 in 10.0 mi South 19.6 mph 24.2 mph N/A   Clear
12:53 PM 32.0 °F 20.8 °F 17.6 °F 55% 30.28 in 10.0 mi South 17.3 mph 25.3 mph N/A   Clear
1:13 PM 33.8 °F 23.2 °F 17.6 °F 52% 30.27 in 10.0 mi South 17.3 mph - N/A   Clear
1:33 PM 33.8 °F 23.9 °F 17.6 °F 52% 30.25 in 10.0 mi South 15.0 mph 23.0 mph N/A   Clear
1:53 PM 32.0 °F 21.2 °F 17.6 °F 55% 30.24 in 10.0 mi South 16.1 mph - N/A   Clear
2:13 PM 33.8 °F 24.8 °F 17.6 °F 52% 30.23 in 10.0 mi SSE 12.7 mph 23.0 mph N/A   Clear
2:33 PM 33.8 °F 23.5 °F 19.4 °F 56% 30.22 in 10.0 mi SSE 16.1 mph 21.9 mph N/A   Clear
2:53 PM 33.8 °F 23.2 °F 19.4 °F 56% 30.21 in 10.0 mi SSE 17.3 mph 21.9 mph N/A   Clear
3:13 PM 33.8 °F 23.5 °F 19.4 °F 56% 30.20 in 10.0 mi SSE 16.1 mph 20.7 mph N/A   Clear
3:33 PM 32.0 °F 22.1 °F 19.4 °F 60% 30.19 in 10.0 mi SSE 13.8 mph 20.7 mph N/A   Clear
3:53 PM 33.8 °F 23.2 °F 19.4 °F 56% 30.16 in 10.0 mi SSE 17.3 mph - N/A   Clear
4:13 PM 32.0 °F 20.8 °F 19.4 °F 60% 30.16 in 10.0 mi SSE 17.3 mph 20.7 mph N/A   Clear
4:33 PM 32.0 °F 22.5 °F 21.2 °F 64% 30.15 in 10.0 mi SSE 12.7 mph - N/A   Clear
4:53 PM 32.0 °F 20.1 °F 19.4 °F 60% 30.16 in 10.0 mi SSE 19.6 mph 26.5 mph N/A   Clear
5:13 PM 32.0 °F 21.2 °F 21.2 °F 64% 30.14 in 10.0 mi SSE 16.1 mph - N/A   Clear
5:33 PM 32.0 °F 20.1 °F 21.2 °F 64% 30.14 in 10.0 mi SSE 19.6 mph 24.2 mph N/A   Clear
5:53 PM 32.0 °F 21.6 °F 21.2 °F 64% 30.15 in 10.0 mi SSE 15.0 mph 25.3 mph N/A   Clear
6:13 PM 32.0 °F 21.6 °F 21.2 °F 64% 30.15 in 10.0 mi SSE 15.0 mph 19.6 mph N/A   Clear
6:33 PM 30.2 °F 18.9 °F 21.2 °F 69% 30.13 in 10.0 mi SSE 16.1 mph 25.3 mph N/A   Clear
6:53 PM 30.2 °F 19.3 °F 21.2 °F 69% 30.13 in 10.0 mi South 15.0 mph - N/A   Clear
7:13 PM 32.0 °F 20.8 °F 21.2 °F 64% 30.13 in 10.0 mi South 17.3 mph 23.0 mph N/A   Clear
7:33 PM 32.0 °F 21.6 °F 21.2 °F 64% 30.14 in 10.0 mi South 15.0 mph 20.7 mph N/A   Clear
7:53 PM 30.2 °F 19.8 °F 21.2 °F 69% 30.14 in 10.0 mi South 13.8 mph 18.4 mph N/A   Clear
8:13 PM 30.2 °F 19.3 °F 21.2 °F 69% 30.13 in 10.0 mi South 15.0 mph - N/A   Clear
8:33 PM 30.2 °F 19.3 °F 21.2 °F 69% 30.13 in 10.0 mi South 15.0 mph - N/A   Clear
8:53 PM 32.0 °F 21.2 °F 23.0 °F 69% 30.12 in 10.0 mi South 16.1 mph - N/A   Clear
9:13 PM 32.0 °F 21.6 °F 23.0 °F 69% 30.11 in 10.0 mi South 15.0 mph 23.0 mph N/A   Clear
9:33 PM 32.0 °F 20.8 °F 23.0 °F 69% 30.10 in 10.0 mi South 17.3 mph - N/A   Clear
9:53 PM 32.0 °F 20.5 °F 23.0 °F 69% 30.10 in 10.0 mi South 18.4 mph 24.2 mph N/A   Clear
10:13 PM 32.0 °F 20.1 °F 23.0 °F 69% 30.09 in 10.0 mi South 19.6 mph 24.2 mph N/A   Clear
10:33 PM 32.0 °F 20.8 °F 23.0 °F 69% 30.08 in 10.0 mi South 17.3 mph - N/A   Clear
10:53 PM 32.0 °F 21.2 °F 23.0 °F 69% 30.08 in 10.0 mi South 16.1 mph 23.0 mph N/A   Clear
11:13 PM 30.2 °F 18.9 °F 23.0 °F 75% 30.07 in 10.0 mi South 16.1 mph - N/A   Clear
11:33 PM 30.2 °F 18.5 °F 23.0 °F 75% 30.07 in 10.0 mi South 17.3 mph 21.9 mph N/A   Clear
11:53 PM 30.2 °F 19.8 °F 23.0 °F 75% 30.07 in 10.0 mi South 13.8 mph - N/A   Clear